Tracking 26894 objects as of 1-Feb-2023
HD Live streaming from Space Station
objects crossing your sky now

TEMPSAT 1

Track TEMPSAT 1 now!
10-day predictions
TEMPSAT 1 is classified as:


NORAD ID: 1512
Int'l Code: 1965-065E
Perigee: 1,087.0 km
Apogee: 1,194.7 km
Inclination: 89.9 °
Period: 108.0 minutes
Semi major axis: 7511 km
RCS: 0.0695 m2 (small)
Launch date: August 13, 1965
Source: United States (US)
Launch site: AIR FORCE WESTERN TEST RANGE (AFWTR)
Your satellite tracking list
Your tracking list is empty




NASA's NSSDC Master Catalog

Two Line Element Set (TLE):
1  1512U 65065E   23032.55138752  .00000049  00000-0  77616-4 0  9991
2  1512  89.9220 216.8924 0071721 106.8261 315.5593 13.33467596795903
Source of the keplerian elements: AFSPC